Regional Weather Roundup
Issued by NWS

Home | Current Version | Previous Version | Graphics & Text | Print | Product List | Glossary Off
Versions: 1 2 3 4 5 6 7 8 9 10 11 12 13 14 15 16 17 18 19 20 21 22 23 24 25 26 27 28 29 30 31 32 33 34 35 36 37 38 39 40 41 42 43 44 45 46 47 48 49 50

000
ASUS43 KMPX 010901
RWRMN
WEATHER ROUNDUP FOR MINNESOTA
NATIONAL WEATHER SERVICE TWIN CITIES/CHANHASSEN MN
400 AM CDT SAT AUG 01 2015


NOTE: "FAIR" INDICATES FEW OR NO CLOUDS BELOW 12,000 FEET WITH NO
SIGNIFICANT WEATHER AND/OR OBSTRUCTIONS TO VISIBILITY. N/A MEANS
CURRENT SKY AND/OR WEATHER CONDITIONS ARE NOT AVAILABLE.

MNZ060>063-068>070-011000-
   Twin Cities Metro

CITY           SKY/WX    TMP DP  RH WIND       PRES   REMARKS
TWIN CITIES    PTCLDY    70  58  65 CALM      29.98F
ST PAUL        MOCLDY    68  61  78 N3        29.98S
CRYSTAL        CLOUDY    67  59  75 CALM      29.97S
BLAINE         MOCLDY    64  61  88 CALM      29.98S
LAKEVILLE      MOCLDY    63  57  82 CALM      29.98F
EDEN PRAIRIE   PTCLDY    64  59  83 CALM      29.97F
SOUTH ST PAUL  CLEAR     68  58  70 CALM      29.97F
LAKE ELMO      MOCLDY    59  57  94 SW3       29.99F
$$
MNZ001>005-007-008-013>017-022>024-027-028-011000-
   Northwest Minnesota

CITY           SKY/WX    TMP DP  RH WIND       PRES   REMARKS
BEMIDJI        CLEAR     55  50  82 CALM      29.96F
HALLOCK        CLEAR     48  48 100 CALM      29.94S
ROSEAU         CLEAR     52  46  82 CALM      29.93S
WARROAD        CLEAR     55  52  88 SW6       29.93S
THIEF RVR FALL CLEAR     54  50  87 CALM      29.96S
CROOKSTON      CLEAR     55  52  88 CALM      29.97S
FOSSTON        CLEAR     52  50  93 S6        29.97F
DETROIT LAKES  CLEAR     59  55  88 CALM      30.00S
MOORHEAD       CLEAR     57  55  94 S5        29.99S
PARK RAPIDS    CLEAR     55  50  83 W3        29.98F
MAHNOMEN       FAIR      54  51  90 S3        29.98S
$$
MNZ006-009>011-018-025>026-011000-
   North Central Minnesota

CITY           SKY/WX    TMP DP  RH WIND       PRES   REMARKS
BAUDETTE       CLEAR     54  50  86 W6        29.91F
FLAG ISLAND    CLEAR     61  54  77 W13       29.89S
INTL FALLS     CLEAR     54  49  83 W5        29.90F
WASKISH        CLEAR     59  54  82 CALM      29.93F
BIG FORK       CLEAR     50  48  93 CALM      29.94F
LONGVILLE      CLEAR     54  52  94 CALM      29.96F FOG
GRAND RAPIDS   CLEAR     54  48  82 CALM      29.96S
CRANE LAKE     CLEAR     46  46 100 CALM      29.92S
ORR            CLEAR     52  46  82 CALM      29.90S
COOK           CLEAR     48  46  93 CALM      29.93S
WALKER         FAIR      53  51  94 CALM      29.97F
$$
MNZ012-019>021-037-011000-
   Northeast Minnesota

CITY           SKY/WX    TMP DP  RH WIND       PRES   REMARKS
DULUTH         CLEAR     57  49  74 W9        29.94S
ELY            CLEAR     54  52  94 SW3       29.91S
HIBBING        CLEAR     48  45  89 SW3       29.94S
EVELETH        CLEAR     48  46  93 CALM      29.95S
DULUTH HARBOR  CLEAR     64  54  68 W10       29.94S
TWO HARBORS    CLEAR     57  52  82 NW3       29.91S
SILVER BAY     CLEAR     57  52  82 CALM      29.89S
GRAND MARAIS     N/A     63  53  70 NW8       29.84S
G MARAIS ARPRT PTCLDY    54  48  82 W3        29.89S
$$
MNZ029>031-032-039>041-046>048-054>057-064-011000-
   West Central Minnesota

CITY           SKY/WX    TMP DP  RH WIND       PRES   REMARKS
FERGUS FALLS   CLEAR     61  57  88 CALM      29.99S
WHEATON        CLEAR     57  55  94 SW3       30.01S
MORRIS         CLEAR     61  59  94 CALM      29.99S
ALEXANDRIA     CLEAR     61  60  97 CALM      30.01F
ELBOW LAKE     FAIR      65  64  95 CALM      30.00R
WADENA         CLEAR     54  52  94 CALM      29.99S
GLENWOOD       CLEAR     63  57  82 N5        30.00F
APPLETON       CLEAR     59  55  88 W3        29.99S
BENSON           N/A     57  55  94 CALM      29.99S FOG
ORTONVILLE     CLEAR     63  59  88 W5        30.00R
MADISON        CLEAR     61  57  88 W7        29.99F
WILLMAR        FAIR      61  57  88 CALM      30.00S
$$
MNZ033>034-036-042>043-049>051-058-059-011000-
   Central Minnesota

CITY           SKY/WX    TMP DP  RH WIND       PRES   REMARKS
ST CLOUD       PTCLDY    59  58  96 CALM      29.98F
SAUK CENTRE    FAIR      58  57  97 CALM      30.00S
PAYNESVILLE    CLEAR     55  55 100 CALM      29.99F FOG
AITKIN         CLEAR     52  46  82 CALM      29.96S
PINE RIVER     CLEAR     52  50  93 CALM      30.01S
BRAINERD       CLEAR     54  53  97 S5        29.98F
STAPLES        CLEAR     55  54  94 CALM      29.99S
LONG PRAIRIE   CLOUDY    61  59  94 CALM      30.00F
LITTLE FALLS   CLEAR     55  54  94 CALM      29.99S
LITCHFIELD     CLEAR     63  61  94 CALM      29.99S
BUFFALO        PTCLDY    62  58  87 CALM      29.99F
MAPLE LAKE     PTCLDY    61  61 100 CALM      30.00S
$$
MNZ037-044-045-052-053-011000-
   East Central Minnesota

CITY           SKY/WX    TMP DP  RH WIND       PRES   REMARKS
PRINCETON      PTCLDY    61  57  88 CALM      29.98F
MORA           PTCLDY    55  54  94 CALM      29.99F
CAMBRIDGE      MOCLDY    64  55  72 CALM      29.96F
RUSH CITY      CLOUDY    58  55  92 CALM      29.98S
MOOSE LAKE     CLEAR     54  50  87 CALM      29.95S
HINCKLEY       FAIR      52  52 100 CALM      29.97F
CLOQUET        CLEAR     57  48  72 W6        29.95F
MCGREGOR       CLEAR     54  50  87 SW3       29.97F
$$
MNZ071>073-080-081-089-090-097-098-011000-
   Southwest Minnesota

CITY           SKY/WX    TMP DP  RH WIND       PRES   REMARKS
MONTEVIDEO     CLEAR     63  55  77 NW6       30.00F
GRANITE FALLS  CLEAR     58  57  96 W6        30.01S
CANBY          CLEAR     65  60  82 SW8       30.00F
MARSHALL       CLEAR     66  57  72 W7        30.01F
REDWOOD FALLS  CLEAR     62  59  90 W7        29.98F
OLIVIA         CLEAR     57  54  88 W3        29.98S
PIPESTONE      CLEAR     61  59  94 SW3       30.04F
WINDOM         CLEAR     63  59  88 SW5       30.03S
WORTHINGTON    CLEAR     64  57  77 SW7       30.04F
JACKSON        CLEAR     64  59  82 SW7       30.04S
TRACY          CLEAR     66  61  82 W9        30.01F
SLAYTON        CLEAR     66  62  85 CALM      30.04S
$$
MNZ065>067-074>077-082>085-091>093-011000-
   South Central Minnesota

CITY           SKY/WX    TMP DP  RH WIND       PRES   REMARKS
MANKATO        CLEAR     64  55  72 S6        29.99F
NEW ULM        CLEAR     63  61  94 CALM      29.99S
ST JAMES       CLEAR     64  61  88 SW8       30.01S
FAIRMONT       CLEAR     64  55  72 SW8       30.01F
GLENCOE        CLEAR     62  60  94 CALM      29.97F
FARIBAULT      PTCLDY    63  59  88 CALM      30.00F
OWATONNA       PTCLDY    64  57  77 S5        30.00F
WASECA         CLEAR     59  55  88 S3        30.01F
ALBERT LEA     CLEAR     64  57  77 SW7       30.01F
$$
MNZ078>079-086>088-094>096-011000-
   Southeast Minnesota

CITY           SKY/WX    TMP DP  RH WIND       PRES   REMARKS
ROCHESTER      CLOUDY    64  58  80 SW3       30.03S
RED WING       PTCLDY    63  59  88 CALM      29.98S
STANTON        PTCLDY    64  58  80 CALM      29.98S
DODGE CENTER   PTCLDY    61  57  88 SW5       30.01S
WINONA         MOCLDY    63  59  88 CALM      30.00R
AUSTIN         CLEAR     61  57  88 CALM      30.01F
PRESTON        MOCLDY    64  56  75 CALM      30.02S
$$
ABBREVIATIONS USED IN REMARKS
   TC - TEMPERATURES IN CELSIUS
  WCI - WIND CHILL INDEX
   HX - HEAT INDEX
  VSB - VISIBILITY
$$


USA.gov is the U.S. government's official web portal to all federal, state and local government web resources and services.